Weather History for Venice, Italy

Change the Weather History Date:

Tuesday, November 26, 2013

  Actual Average Record
Temperature  
Mean Temperature 40 °F -  
Max Temperature 48 °F 45 °F 62 °F (2002)
Min Temperature 32 °F 33 °F 32 °F (1999)
Degree Days  
Heating Degree Days 25    
Moisture  
Dew Point 17 °F    
Average Humidity 43    
Maximum Humidity 69    
Minimum Humidity 22    
Precipitation  
Precipitation 0.00 in 0.08 in - ()
Sea Level Pressure  
Sea Level Pressure 30.14 in    
Wind  
Wind Speed 4 mph ()    
Max Wind Speed 13 mph    
Max Gust Speed -    
Averages and records for this station are not official NWS values.
T = Trace of Precipitation, MM = Missing Value Source: Averaged Metar Reports

Daily Weather History Graph

Daily Weather History Graph

Search for Another Location

Airport:

Trip Planner

Search our weather history database for the weather conditions in past years. The results will help you decide how hot, cold, wet, or windy it might be!

Date:

Astronomy

Nov. 26, 2013 Rise Set
Actual Time 7:24 AM CET 4:31 PM CET
Civil Twilight 6:51 AM CET 5:04 PM CET
Nautical Twilight 6:14 AM CET 5:41 PM CET
Astronomical Twilight 5:38 AM CET 6:16 PM CET
Moon No Moon Rise 12:47 PM CET (11/26)
Length of Visible Light 10h 13m
Length of Day
9h 07m
Last Quarter, 44% of the Moon is Illuminated
Nov 26
Last Quarter
Dec 3
New
Dec 9
First Quarter
Dec 17
Full
Dec 25
Last Quarter

Hourly Weather History & Observations

Time (CET) Temp. Windchill Dew Point Humidity Pressure Visibility Wind Dir Wind Speed Gust Speed Precip Events Conditions
12:20 AM 35.6 °F 32.8 °F 19.4 °F 52% 30.09 in - Variable 3.5 mph - N/A   Clear
12:50 AM 35.6 °F 32.8 °F 15.8 °F 44% 30.09 in - Variable 3.5 mph - N/A   Clear
1:20 AM 35.6 °F 32.8 °F 19.4 °F 52% 30.09 in - Variable 3.5 mph - N/A   Clear
1:50 AM 35.6 °F 32.8 °F 21.2 °F 56% 30.09 in - Variable 3.5 mph - N/A   Clear
2:20 AM 33.8 °F 30.8 °F 19.4 °F 56% 30.09 in - Variable 3.5 mph - N/A   Clear
2:50 AM 35.6 °F 30.7 °F 17.6 °F 48% 30.09 in - North 5.8 mph - N/A   Clear
3:20 AM 33.8 °F 30.8 °F 17.6 °F 52% 30.09 in - Variable 3.5 mph - N/A   Clear
3:50 AM 33.8 °F 28.6 °F 17.6 °F 52% 30.09 in - NNW 5.8 mph - N/A   Clear
4:20 AM 33.8 °F - 19.4 °F 56% 30.09 in - Variable 1.2 mph - N/A   Clear
4:50 AM 32.0 °F - 19.4 °F 60% 30.09 in - Variable 1.2 mph - N/A   Clear
5:20 AM 32.0 °F - 21.2 °F 64% 30.09 in - Calm Calm - N/A   Clear
5:50 AM 32.0 °F - 17.6 °F 55% 30.09 in - Variable 2.3 mph - N/A   Clear
6:20 AM 32.0 °F - 23.0 °F 69% 30.09 in - Variable 1.2 mph - N/A   Clear
6:50 AM 32.0 °F - 21.2 °F 64% 30.12 in - Calm Calm - N/A   Clear
7:20 AM 32.0 °F - 19.4 °F 60% 30.12 in - Variable 1.2 mph - N/A   Clear
7:50 AM 32.0 °F - 21.2 °F 64% 30.12 in - Variable 2.3 mph - N/A   Clear
8:20 AM 35.6 °F - 21.2 °F 56% 30.15 in - Variable 2.3 mph - N/A   Clear
8:50 AM 35.6 °F 32.8 °F 19.4 °F 52% 30.15 in - Variable 3.5 mph - N/A   Clear
9:20 AM 41.0 °F 37.1 °F 15.8 °F 36% 30.15 in - North 5.8 mph - N/A   Clear
9:50 AM 41.0 °F 39.0 °F 14.0 °F 33% 30.15 in - Variable 3.5 mph - N/A   Clear
10:20 AM 42.8 °F 38.0 °F 14.0 °F 31% 30.15 in - NNE 8.1 mph - N/A   Clear
10:50 AM 44.6 °F 41.4 °F 19.4 °F 37% 30.15 in - North 5.8 mph - N/A   Clear
11:20 AM 44.6 °F 42.2 °F 17.6 °F 34% 30.15 in - North 4.6 mph - N/A   Clear
11:50 AM 44.6 °F 40.7 °F 15.8 °F 31% 30.15 in - NNE 6.9 mph - N/A   Clear
12:20 PM 46.4 °F 42.9 °F 15.8 °F 29% 30.15 in - NNE 6.9 mph - N/A   Clear
12:50 PM 46.4 °F 42.4 °F 14.0 °F 27% 30.15 in - NNE 8.1 mph - N/A   Clear
1:20 PM 46.4 °F 43.5 °F 14.0 °F 27% 30.12 in - North 5.8 mph - N/A   Clear
1:50 PM 48.2 °F - 12.2 °F 24% 30.15 in - NNE 5.8 mph - N/A   Clear
2:20 PM 48.2 °F - 10.4 °F 22% 30.12 in - North 8.1 mph - N/A   Clear
2:50 PM 48.2 °F - 15.8 °F 27% 30.15 in - NE 11.5 mph - N/A   Clear
3:20 PM - - - N/A% 30.15 in - NNE 12.7 mph - N/A   Clear
3:50 PM - - - N/A% 30.15 in - NNE 8.1 mph - N/A   Clear
4:20 PM - - - N/A% 30.15 in - NNE 8.1 mph - N/A   Clear
4:50 PM - - - N/A% 30.15 in - NNE 6.9 mph - N/A   Clear
5:20 PM - - - N/A% 30.15 in - North 6.9 mph - N/A   Clear
5:50 PM 42.8 °F 38.6 °F 14.0 °F 31% 30.18 in - North 6.9 mph - N/A   Clear
6:20 PM 44.6 °F 38.4 °F 14.0 °F 29% 30.18 in - NNE 12.7 mph - N/A   Clear
6:50 PM 42.8 °F 38.0 °F 12.2 °F 29% 30.18 in - NNW 8.1 mph - N/A   Clear
7:20 PM 42.8 °F 40.1 °F 17.6 °F 36% 30.18 in - North 4.6 mph - N/A   Clear
7:50 PM 42.8 °F 38.0 °F 14.0 °F 31% 30.18 in - NNE 8.1 mph - N/A   Clear
8:20 PM 41.0 °F 36.4 °F 19.4 °F 42% 30.21 in - North 6.9 mph - N/A   Clear
8:50 PM 41.0 °F 35.8 °F 17.6 °F 39% 30.21 in - North 8.1 mph - N/A   Clear
9:20 PM 37.4 °F 32.8 °F 14.0 °F 38% 30.21 in - North 5.8 mph - N/A   Clear
9:50 PM 37.4 °F 32.8 °F 15.8 °F 41% 30.21 in - North 5.8 mph - N/A   Clear
10:20 PM 37.4 °F 32.8 °F 12.2 °F 36% 30.21 in - North 5.8 mph - N/A   Clear
10:50 PM 37.4 °F 32.1 °F 12.2 °F 36% 30.21 in - North 6.9 mph - N/A   Clear
11:20 PM 37.4 °F 32.8 °F 12.2 °F 36% 30.21 in - WSW 5.8 mph - N/A   Clear
11:50 PM 37.4 °F 32.1 °F 12.2 °F 36% 30.18 in - North 6.9 mph - N/A   Clear